Theta_e
313 311 311 312 310 311 313 313 313 312 313 315 313 311 311 314 314 314 315 317 319 319 319 319 319 319 319 319 318 318 318 317 317 316 314 313 312 312 314 314 314 314 314 314
310 311 312 312 313 313 312 312 313 312 313 315 314 313 313 314 315 317 317 316 319 319 319 319 319 319 319 319 318 318 318 317 317 315 314 313 312 311 312 312 312 312 312 313
312 313 314 315 314 314 312 312 312 313 314 315 314 313 313 313 314 318 318 318 319 319 319 319 319 319 318 318 318 318 318 318 316 314 313 313 312 311 310 310 310 310 311 312
311 312 313 313 313 313 313 313 314 315 314 313 314 313 312 313 313 313 316 316 317 319 319 318 318 318 318 318 318 318 317 317 316 314 313 312 311 310 309 309 309 310 310 311
313 313 312 312 313 314 314 314 314 314 312 313 313 313 311 311 313 312 312 315 317 318 319 318 318 318 318 318 318 318 317 318 316 313 312 311 310 308 309 309 309 309 309 309
312 312 312 311 314 315 313 313 312 311 310 312 312 312 310 311 315 317 315 315 315 317 318 318 317 318 318 319 318 318 318 316 314 312 312 310 308 309 309 309 308 308 309 308
312 312 312 313 314 313 311 310 311 312 316 313 314 313 310 313 317 317 314 315 316 317 318 318 318 318 319 319 318 318 317 314 312 312 311 308 307 308 309 309 308 308 308 309
313 314 314 314 313 312 310 310 313 313 318 322 317 319 318 318 316 315 315 316 317 318 318 319 319 319 319 318 318 317 314 313 313 311 308 307 307 308 308 308 308 308 308 308
312 313 314 314 313 312 312 311 311 315 316 315 316 316 317 319 317 315 316 317 318 319 319 319 319 318 318 317 316 314 313 313 311 308 307 307 308 308 308 308 308 308 308 309
313 314 314 315 315 314 312 313 314 312 320 320 316 316 316 320 318 317 315 317 319 319 319 318 318 318 317 316 314 313 313 312 308 307 307 307 308 308 309 309 308 308 308 309
312 312 314 316 314 313 314 314 315 314 313 316 317 317 314 317 316 316 315 319 319 319 318 318 318 317 315 314 313 313 312 308 308 307 306 307 309 309 309 309 309 309 309 310
312 311 314 315 315 315 313 312 316 317 317 314 314 318 314 315 315 317 318 319 318 318 319 318 317 315 314 313 314 312 308 309 308 307 305 308 310 310 310 311 311 311 311 310
317 313 311 313 313 315 315 313 313 312 311 316 317 318 315 314 315 317 316 317 318 319 318 317 314 314 314 314 312 308 309 309 308 306 305 308 310 311 311 312 312 312 311 310
314 317 316 317 314 314 317 317 313 312 311 316 316 316 317 316 315 315 316 317 318 318 316 315 314 315 314 312 310 309 309 308 307 305 304 308 310 311 312 311 311 311 311 309
309 312 312 313 314 314 315 317 316 313 315 314 316 314 314 314 315 317 319 316 317 316 315 315 315 314 313 311 310 310 308 307 305 303 307 309 310 311 311 310 310 310 309 309
308 310 312 312 316 315 316 317 317 316 316 315 315 315 314 316 317 316 317 317 316 315 315 315 314 313 311 310 310 308 307 306 303 306 309 310 310 310 310 310 309 309 309 308
307 308 311 313 314 314 318 316 316 316 313 314 315 315 315 314 313 314 315 317 316 315 315 315 315 312 310 310 308 307 306 303 305 308 310 310 309 309 310 309 309 310 310 310
307 307 309 309 308 313 316 315 316 316 315 313 313 312 312 314 316 317 316 317 316 315 315 315 311 310 310 308 307 306 304 303 307 309 309 309 308 309 310 310 310 311 310 307
308 307 305 308 308 310 309 314 315 316 316 315 314 313 313 315 316 315 316 316 316 316 314 311 311 310 309 307 306 305 303 306 307 308 307 307 308 309 310 310 310 310 310 307
308 308 307 304 308 306 309 312 314 314 316 314 313 314 312 314 314 312 316 315 316 313 312 311 310 309 307 306 305 304 303 305 305 306 306 307 308 309 309 310 310 313 313 312
306 307 309 308 308 308 311 313 314 320 316 315 316 315 314 313 313 315 316 316 314 312 312 310 309 307 306 305 305 303 304 304 304 305 306 307 308 309 309 311 312 314 315 316
305 305 306 307 310 310 310 313 317 314 315 316 316 316 315 315 316 316 316 314 312 312 311 309 307 306 305 305 304 303 303 305 305 304 304 305 307 308 308 311 312 314 314 314
308 309 306 308 310 307 308 312 313 312 315 316 316 317 317 315 316 316 314 313 312 311 309 307 306 305 305 304 302 302 303 305 303 302 302 303 305 306 309 311 313 313 314 312
306 304 307 308 306 308 307 310 312 315 316 316 316 315 315 315 316 315 313 312 310 309 307 306 305 305 304 303 301 302 304 304 302 302 303 302 302 305 308 310 310 310 311 313
302 304 304 306 305 306 308 308 309 313 317 316 316 315 315 316 315 314 312 310 308 307 306 305 305 304 303 302 301 302 302 301 301 301 302 302 302 304 306 306 307 307 308 309
302 302 304 304 304 308 307 307 307 308 315 315 315 315 316 316 315 312 310 308 307 306 305 304 304 303 302 300 301 302 301 301 301 301 302 301 301 303 304 303 308 308 307 310
Wind_Speed
3 4 6 8 6 4 2 4 5 4 3 1 5 8 10 16 11 14 17 31 35 34 27 23 18 14 12 12 11 12 16 21 27 29 29 31 32 33 32 32 33 35 34 32
5 4 10 5 5 6 6 7 5 5 3 2 5 9 9 8 11 19 24 30 39 34 28 26 21 17 13 11 9 11 15 21 27 27 28 30 32 34 36 36 36 36 34 32
5 7 2 4 4 6 6 5 4 6 4 3 4 8 6 7 17 28 31 30 41 41 36 30 24 17 14 11 7 9 15 20 24 26 28 30 33 35 36 38 38 35 34 34
5 2 0 3 4 7 7 6 4 5 3 4 2 6 5 5 9 9 23 22 38 43 37 31 25 20 14 8 7 14 16 22 26 26 28 33 36 41 42 37 39 37 35 36
8 4 2 1 5 5 8 4 4 3 3 2 3 2 7 4 7 12 14 28 34 45 39 32 26 18 11 6 11 14 19 25 28 26 29 33 37 40 42 42 40 39 39 37
8 2 4 7 5 4 6 5 7 5 3 2 7 8 6 5 4 6 4 13 29 38 34 28 20 13 7 10 13 17 23 25 24 26 30 33 37 39 39 40 41 39 38 39
2 4 4 5 3 3 6 6 3 4 2 6 2 2 9 7 13 10 7 18 31 35 30 23 15 8 10 13 16 20 22 23 24 28 32 34 38 39 39 39 40 39 39 39
4 8 6 4 7 8 7 9 6 6 4 4 3 6 5 4 9 5 18 30 29 27 21 15 11 11 13 16 18 20 21 22 27 31 32 35 40 39 38 38 37 38 40 41
5 7 5 4 5 9 5 4 5 6 2 2 4 7 5 1 5 9 20 22 22 20 16 16 14 14 15 15 17 18 20 24 28 30 33 38 41 41 38 36 36 38 39 40
6 8 9 5 5 2 7 8 4 2 4 5 5 5 6 6 6 5 7 18 21 18 18 18 16 15 16 16 15 18 23 27 29 30 35 41 42 41 37 36 37 37 40 40
3 5 4 4 6 9 2 2 4 5 5 6 2 6 6 9 9 10 10 18 19 19 17 18 18 18 16 13 14 20 25 27 29 33 37 42 40 36 35 37 37 38 40 41
5 4 6 10 4 4 6 11 8 5 6 3 3 9 5 8 10 15 17 13 10 16 21 23 21 17 13 13 19 22 25 26 30 35 39 41 37 34 35 36 35 34 38 40
7 4 5 8 6 3 5 5 5 5 4 8 6 10 3 4 5 18 15 12 11 15 25 23 19 14 14 18 20 21 22 27 32 36 40 41 38 36 35 36 37 38 40 41
3 6 11 11 8 3 5 6 7 7 4 11 11 19 6 8 10 13 20 16 14 21 23 19 15 14 16 17 19 20 23 29 35 38 41 39 37 36 36 37 38 39 41 43
4 5 4 15 20 15 16 8 14 10 19 10 23 16 14 10 11 21 25 13 18 24 22 17 14 13 15 17 18 20 26 32 37 39 39 37 36 36 37 35 37 41 44 45
2 5 5 17 16 12 18 15 11 18 22 13 17 13 6 20 28 13 21 17 24 24 18 14 12 14 16 16 17 23 29 34 37 38 35 34 36 36 39 40 40 41 43 42
7 4 1 9 9 16 14 24 23 16 6 12 12 15 9 8 10 21 26 25 26 20 15 11 13 14 14 14 19 26 32 34 36 33 31 33 36 38 39 40 40 43 45 46
9 6 4 6 8 15 8 9 19 20 18 11 10 9 8 16 28 24 19 25 20 15 11 11 12 11 11 15 20 27 31 33 35 29 31 34 36 37 37 39 40 42 43 43
16 9 6 7 12 15 21 9 9 14 25 19 12 14 13 11 13 6 19 16 12 9 9 10 9 9 12 17 23 29 31 32 30 29 32 34 34 35 36 37 39 39 39 39
14 16 12 3 10 9 11 9 14 4 14 16 16 18 10 17 6 5 23 19 12 9 10 8 8 9 14 19 24 28 30 32 30 30 31 32 31 31 34 36 36 35 32 32
4 4 17 14 12 7 8 7 9 11 13 13 21 15 23 10 8 17 23 18 11 11 9 6 8 10 14 19 23 27 28 28 30 30 29 29 29 29 29 28 25 28 23 24
5 4 6 6 10 19 17 17 11 15 26 6 20 28 25 11 12 17 20 16 15 11 8 6 8 11 15 19 25 25 26 27 30 29 28 28 28 26 26 24 26 26 26 27
5 4 2 2 4 11 18 17 25 29 23 22 29 34 29 30 24 23 20 16 14 9 6 5 8 11 14 19 23 24 24 26 28 28 28 27 27 25 23 24 27 28 29 31
4 5 3 2 5 9 23 27 18 27 19 30 35 35 28 26 24 22 18 16 13 8 4 5 7 10 15 18 22 21 23 25 25 26 26 26 27 26 23 21 23 25 27 29
6 6 4 8 14 18 17 20 25 28 23 24 27 25 24 23 24 21 20 16 11 6 3 4 6 11 14 18 20 19 22 24 24 23 25 25 26 26 26 24 23 22 21 21
11 12 6 8 17 7 10 21 25 33 25 19 26 24 26 25 25 22 18 14 9 5 3 4 6 9 15 17 17 21 22 22 23 24 25 24 25 27 27 29 25 14 16 12
Wind_Direction
25 72 227 230 209 183 224 221 231 259 258 181 238 245 259 259 244 249 240 202 198 200 196 194 199 207 232 263 277 309 335 340 337 336 335 331 329 322 313 309 307 307 306 302
15 258 246 246 194 221 247 228 246 289 272 167 272 253 243 250 252 243 234 211 205 199 191 193 199 209 227 249 265 304 331 331 331 332 329 328 326 321 310 305 302 301 301 303
170 242 26 216 260 230 222 183 203 218 338 332 326 275 230 245 239 240 241 234 213 202 195 191 192 200 214 228 270 308 318 327 326 324 323 322 319 317 313 307 301 300 299 298
220 278 250 353 261 185 223 215 183 147 106 235 33 283 258 229 236 238 239 230 213 201 196 187 187 191 203 228 281 306 318 329 322 317 319 320 320 317 313 306 300 298 295 292
243 259 182 338 243 178 227 128 147 134 129 99 315 290 266 288 259 255 239 231 212 202 189 181 183 187 203 255 293 308 320 319 314 313 317 318 315 314 309 304 299 297 294 289
242 236 200 210 209 138 139 83 47 46 86 315 214 181 282 257 246 311 304 212 200 190 176 174 173 185 229 278 297 305 309 306 304 311 316 316 318 317 310 306 303 298 296 293
284 231 245 184 191 71 84 76 329 332 350 230 173 184 242 284 297 272 233 162 164 162 161 164 175 206 257 280 286 298 302 300 308 315 316 316 319 318 309 303 299 299 298 296
183 292 186 185 180 185 190 161 166 219 205 255 310 238 254 295 322 317 160 151 147 154 163 172 205 232 255 270 287 296 294 304 312 314 316 317 319 319 313 305 300 295 295 297
195 258 274 190 166 142 185 167 192 110 2 50 240 291 308 280 7 86 122 143 153 164 185 202 216 234 253 271 283 285 298 308 312 313 319 322 320 319 315 308 300 297 298 299
242 283 212 219 110 63 166 163 77 5 187 238 271 265 234 217 201 194 169 173 183 195 201 205 217 237 257 262 274 295 303 310 314 316 321 322 320 316 312 307 302 297 297 300
206 177 271 134 201 166 147 173 68 126 151 187 225 256 214 206 196 197 207 201 206 210 212 216 230 235 238 258 284 296 305 310 315 317 319 321 319 316 310 305 302 299 299 298
323 223 217 220 219 241 217 187 156 148 216 232 175 256 227 216 206 195 207 219 239 231 226 221 226 231 246 271 289 300 308 313 317 319 320 320 317 314 308 306 303 301 299 298
355 327 336 329 340 311 208 187 151 116 86 198 181 257 259 221 213 208 226 245 253 227 207 213 215 230 264 284 296 308 311 314 317 318 320 319 315 312 308 305 306 303 301 300
295 228 217 244 242 185 208 207 183 151 137 237 224 246 209 197 210 237 243 255 215 209 208 210 226 256 278 295 305 307 309 315 319 320 321 317 314 314 312 310 308 305 301 301
106 264 261 270 267 245 229 213 215 196 228 202 251 229 226 219 220 231 252 230 214 206 207 217 242 268 291 301 302 306 314 320 322 322 321 319 318 317 317 313 309 305 301 301
234 262 334 294 280 267 251 224 204 211 226 234 253 262 185 229 242 240 245 230 209 207 211 230 258 280 294 301 306 315 320 322 323 324 322 323 323 322 321 316 311 306 302 302
204 225 270 276 336 325 260 234 232 231 200 196 222 239 189 226 223 230 227 212 204 203 218 244 268 283 293 300 312 319 322 323 323 325 326 326 325 322 319 318 314 309 303 301
223 184 169 262 310 260 269 231 240 239 240 221 253 254 207 228 237 245 221 195 196 204 225 255 267 282 292 306 316 320 323 323 326 325 325 328 326 323 321 319 316 315 311 305
214 216 223 226 245 291 306 270 225 224 249 247 233 250 219 180 159 202 193 198 194 214 243 252 268 281 302 313 320 323 325 326 324 324 327 328 328 325 326 323 320 318 315 307
226 224 217 208 224 224 247 252 264 137 252 228 226 241 160 149 169 230 194 191 198 220 232 257 279 295 309 317 322 326 325 327 330 328 328 329 328 329 331 334 335 333 317 308
289 217 227 225 243 277 247 244 236 195 246 169 200 189 166 179 200 205 182 188 200 213 230 245 276 296 313 320 323 325 327 332 329 328 331 331 331 333 336 345 352 346 345 353
264 225 219 221 233 240 356 227 199 232 277 228 172 169 165 190 162 161 172 185 198 211 214 250 286 308 318 322 326 324 331 335 330 335 336 336 336 333 339 337 342 345 344 352
247 250 191 213 262 319 316 293 290 312 245 203 192 178 190 177 172 173 179 187 193 203 222 273 297 309 316 326 333 327 333 333 334 339 342 340 338 341 336 334 330 332 338 349
229 207 226 298 238 250 302 313 305 319 274 179 179 179 174 172 177 178 183 183 190 200 230 289 299 308 318 329 334 328 331 335 338 343 346 345 345 347 341 336 334 332 335 337
216 174 245 259 271 273 253 321 308 320 298 202 188 177 182 178 177 182 179 181 186 199 246 268 291 307 321 330 329 334 337 338 343 347 349 348 348 347 346 346 348 338 334 333
224 238 220 246 265 231 277 306 312 305 287 189 177 181 186 184 179 180 174 178 188 197 207 251 290 316 331 340 347 337 343 348 346 345 347 350 350 348 350 348 352 1 343 331